FENGYUN 1C DEB, 38138

Orbit data source: Space-Track

FENGYUN 1C DEB, 38138 is space debris in SSO originally from a launch on Mon, 10 May 1999 UTC launched from the Taiyaun Space Center, China (TSC). Fengyun 1C debris stems from the Chinese weather satellite Fengyun-1C, which was intentionally destroyed by a Chinese anti-satellite missile in 2007. This event dramatically increased the amount of space debris, with thousands of trackable fragments posing hazards to satellites and human spaceflight. The Fengyun 1C debris cloud has become a focal point in discussions about space sustainability and the need for international regulations to prevent the creation of new debris.

Loading next visibility...
Identifier
38138, 1999-025EQK
Orbit
SSO
Country
Flag of CNCN / PRC
Related business
Manufacturer
Unknown
Mission
Spacecraft
Bus & Motor
Unknown
Mass
Unknown
Launch date (UTC)
1999-05-10 (27 years ago)
Launch vehicle
Unknown
Launch site
Taiyaun Space Center, China (TSC)
Object type
Payload
Rocket body
Debris
Shape & HBR
Unknown shape, 0.1 m
Radar Cross Section
Medium (>0.1 m² and <1 m²)

Expand to show TLE details & history
Last TLE update: 6 days ago

TLE from 6 days ago
0 FENGYUN 1C DEB
1 38138U 99025EQK 26249.52509070  .00002500  00000-0  82193-3 0  9992
2 38138  98.8033 356.3333 0035342 257.4625 102.2607 14.38822166676514
Epoch: 2026-09-06T12:36Z
TLE epoch observation values (Epoch: 2026-09-06T12:36:07.836Z)
Latitude
-0.00005°
Longitude
-178.3183°
Altitude
770.775 km
Speed
7.466 km/s
True Right ascension
23h 45m 19s
True Declination
0° 00' 00"
Sunlit
Object was in full shadow at epoch
Visualization orbit readout
Latitude
Unknown
Longitude
Unknown
Altitude
Unknown
Speed
Unknown
Apparent Right ascension
Unknown
Apparent Declination
Unknown
Sunlit
N/A
Visualization observer readout
Local Sidereal Time
03:49:36
Azimuth
Unknown
Elevation
Unknown
Doppler factor
Unknown
Orbital elements
Apogee altitude
784.757 km
Perigee altitude
734.305 km
Semi-major axis
7,137.668 km
Eccentricity
0.00353
Inclination
98.8033°
RAAN
356.3333°
Arg. of periapsis
257.4625°
True anomaly
102.65608°
Mean anomaly
102.2607°
Eccentric anomaly
102.45843°
Mean motion
3.59922 °/min
Orbital period
100.02 mins
BSTAR
0.00082193
Loading maneuver chart data...
Computing Atmospheric mass density...
Loading historical data...
Loading historical data...
Loading historical data...
Loading historical data...
Loading historical data...
Loading historical data...
Loading historical data...

Documentation

Showing up to 5 results
|